Location: ????????
(55.0559°N, 39.1270°E)
Time: 02:12:58
(UTC+00:00)

Cosmos 1331 Rocket - Pass Details

Date: 15 November 2025
Orbit: 746 x 772 km, 74.0° (Epoch: 12 December)

Event Time Altitude Azimuth Distance (km) Brightness Sun altitude
Rises 03:24:44 0° 202° (SSW) 3,230 7.2 -12.8°
Reaches altitude 10° 03:27:06 10° 201° (SSW) 2,305 6.4 -12.4°
Maximum altitude 03:32:20 81° 115° (ESE) 781 4.1 -11.7°
Drops below altitude 10° 03:37:34 10° 29° (NNE) 2,304 6.6 -11.0°
Sets 03:39:56 0° 29° (NNE) 3,230 7.4 -10.7°
